Time,TemperatureF,DewpointF,PressureIn,WindDirection,WindDirectionDegrees,WindSpeedMPH,WindSpeedGustMPH,Humidity,HourlyPrecipIn,Conditions,Clouds,dailyrainin,SoftwareType,DateUTC
2013-08-13 00:01:00,62.0,59.7,29.90,East,85,0.0,0.0,92,0.00,,---,0.00,VWS V14.01,2013-08-13 04:01:00,
2013-08-13 00:03:00,61.9,59.5,29.90,East,84,0.0,1.0,92,0.00,,---,0.00,VWS V14.01,2013-08-13 04:03:00,
2013-08-13 00:04:00,61.8,59.5,29.89,East,85,0.0,1.0,92,0.00,,---,0.00,VWS V14.01,2013-08-13 04:04:00,
2013-08-13 00:05:00,61.7,59.4,29.89,East,84,0.0,1.0,92,0.00,,---,0.00,VWS V14.01,2013-08-13 04:05:00,
2013-08-13 00:10:00,61.6,59.0,29.90,East,84,0.0,0.0,91,0.00,,---,0.00,VWS V14.01,2013-08-13 04:10:00,
2013-08-13 00:14:00,61.4,58.8,29.89,East,85,0.0,0.0,91,0.00,,---,0.00,VWS V14.01,2013-08-13 04:14:00,
2013-08-13 00:19:00,61.0,58.7,29.89,East,84,0.0,0.0,92,0.00,,---,0.00,VWS V14.01,2013-08-13 04:19:00,
2013-08-13 00:24:00,60.8,58.5,29.90,East,85,0.0,1.0,92,0.00,,---,0.00,VWS V14.01,2013-08-13 04:24:00,
2013-08-13 00:29:00,60.5,58.2,29.89,East,85,1.0,1.0,92,0.00,,---,0.00,VWS V14.01,2013-08-13 04:29:00,
2013-08-13 00:34:00,60.3,58.0,29.89,WNW,288,0.0,1.0,92,0.00,,---,0.00,VWS V14.01,2013-08-13 04:34:00,
2013-08-13 00:39:00,59.9,57.9,29.89,East,81,1.0,1.0,93,0.00,,---,0.00,VWS V14.01,2013-08-13 04:39:00,
2013-08-13 00:44:00,59.8,57.5,29.89,East,89,1.0,2.0,92,0.00,,---,0.00,VWS V14.01,2013-08-13 04:44:00,
2013-08-13 00:49:00,59.5,57.5,29.89,East,89,0.0,1.0,93,0.00,,---,0.00,VWS V14.01,2013-08-13 04:49:00,
2013-08-13 00:54:00,59.4,57.4,29.88,East,89,0.0,1.0,93,0.00,,---,0.00,VWS V14.01,2013-08-13 04:54:00,
2013-08-13 00:59:00,59.3,57.3,29.88,East,89,0.0,0.0,93,0.00,,---,0.00,VWS V14.01,2013-08-13 04:59:00,
2013-08-13 01:04:00,59.2,57.2,29.88,East,89,0.0,0.0,93,0.00,,---,0.00,VWS V14.01,2013-08-13 05:04:00,
2013-08-13 01:09:00,59.3,57.6,29.88,East,89,1.0,1.0,94,0.00,,---,0.00,VWS V14.01,2013-08-13 05:09:00,
2013-08-13 01:14:00,59.7,57.7,29.88,East,89,0.0,1.0,93,0.00,,---,0.00,VWS V14.01,2013-08-13 05:14:00,
2013-08-13 01:19:00,60.4,57.8,29.87,ESE,105,0.0,1.0,91,0.00,,---,0.00,VWS V14.01,2013-08-13 05:19:00,
2013-08-13 01:24:00,60.8,57.8,29.87,ESE,122,1.0,2.0,90,0.00,,---,0.00,VWS V14.01,2013-08-13 05:24:00,
2013-08-13 01:30:00,61.1,57.8,29.87,SSE,160,1.0,2.0,89,0.00,,---,0.00,VWS V14.01,2013-08-13 05:30:00,
2013-08-13 01:35:00,61.7,57.8,29.87,SSE,160,2.0,3.0,87,0.00,,---,0.00,VWS V14.01,2013-08-13 05:35:00,
2013-08-13 01:40:00,62.7,58.1,29.87,SSE,165,3.0,4.0,85,0.00,,---,0.00,VWS V14.01,2013-08-13 05:40:00,
2013-08-13 01:45:00,63.3,58.1,29.87,SSW,193,3.0,4.0,83,0.00,,---,0.00,VWS V14.01,2013-08-13 05:45:00,
2013-08-13 01:50:00,63.7,58.1,29.87,South,181,2.0,3.0,82,0.00,,---,0.00,VWS V14.01,2013-08-13 05:50:00,
2013-08-13 01:56:00,64.0,58.4,29.86,SSW,204,1.0,3.0,82,0.00,,---,0.00,VWS V14.01,2013-08-13 05:56:00,
2013-08-13 02:01:00,64.1,58.2,29.86,West,260,0.0,2.0,81,0.00,,---,0.00,VWS V14.01,2013-08-13 06:01:00,
2013-08-13 02:07:00,64.2,58.3,29.86,SSW,200,2.0,2.0,81,0.00,,---,0.00,VWS V14.01,2013-08-13 06:07:00,
2013-08-13 02:12:00,64.4,58.5,29.86,SSW,203,1.0,2.0,81,0.00,,---,0.00,VWS V14.01,2013-08-13 06:12:00,
2013-08-13 02:17:00,64.4,58.1,29.86,SSW,198,1.0,2.0,80,0.00,,---,0.00,VWS V14.01,2013-08-13 06:17:00,
2013-08-13 02:22:00,64.3,58.3,29.85,SSE,165,1.0,2.0,81,0.00,,---,0.00,VWS V14.01,2013-08-13 06:22:00,
2013-08-13 02:27:00,64.2,58.3,29.85,SSE,166,1.0,2.0,81,0.00,,---,0.00,VWS V14.01,2013-08-13 06:27:00,
2013-08-13 02:32:00,64.2,58.3,29.85,SSW,212,1.0,3.0,81,0.00,,---,0.00,VWS V14.01,2013-08-13 06:32:00,
2013-08-13 02:37:00,64.2,58.3,29.85,SSE,149,2.0,2.0,81,0.00,,---,0.00,VWS V14.01,2013-08-13 06:37:00,
2013-08-13 02:42:00,64.2,58.3,29.84,SSW,204,1.0,3.0,81,0.00,,---,0.00,VWS V14.01,2013-08-13 06:42:00,
2013-08-13 02:47:00,64.1,58.5,29.84,SW,224,1.0,2.0,82,0.00,,---,0.00,VWS V14.01,2013-08-13 06:47:00,
2013-08-13 02:52:00,64.0,58.4,29.85,SW,220,2.0,3.0,82,0.00,,---,0.00,VWS V14.01,2013-08-13 06:52:00,
2013-08-13 02:57:00,64.0,58.7,29.84,WSW,239,1.0,3.0,83,0.00,,---,0.00,VWS V14.01,2013-08-13 06:57:00,
2013-08-13 03:02:00,64.1,58.8,29.84,SSW,210,3.0,6.0,83,0.00,,---,0.00,VWS V14.01,2013-08-13 07:02:00,
2013-08-13 03:07:00,64.0,58.7,29.84,South,176,2.0,3.0,83,0.00,,---,0.00,VWS V14.01,2013-08-13 07:07:00,
2013-08-13 03:12:00,64.0,59.1,29.83,SSW,197,2.0,5.0,84,0.00,,---,0.00,VWS V14.01,2013-08-13 07:12:00,
2013-08-13 03:17:00,64.3,59.0,29.83,SW,221,1.0,4.0,83,0.00,,---,0.00,VWS V14.01,2013-08-13 07:17:00,
2013-08-13 03:22:00,64.4,59.1,29.83,SSW,202,2.0,3.0,83,0.00,,---,0.00,VWS V14.01,2013-08-13 07:22:00,
2013-08-13 03:27:00,64.5,59.2,29.83,SW,215,3.0,6.0,83,0.00,,---,0.00,VWS V14.01,2013-08-13 07:27:00,
2013-08-13 03:32:00,64.6,59.3,29.83,SSW,208,2.0,6.0,83,0.00,,---,0.00,VWS V14.01,2013-08-13 07:32:00,
2013-08-13 03:37:00,64.6,59.3,29.82,SSW,210,1.0,5.0,83,0.00,,---,0.00,VWS V14.01,2013-08-13 07:37:00,
2013-08-13 03:42:00,64.5,59.2,29.82,SSW,207,1.0,2.0,83,0.00,,---,0.00,VWS V14.01,2013-08-13 07:42:00,
2013-08-13 03:47:00,64.3,59.0,29.82,SE,146,1.0,4.0,83,0.00,,---,0.00,VWS V14.01,2013-08-13 07:47:00,
2013-08-13 03:52:00,64.2,59.3,29.82,SSE,160,0.0,2.0,84,0.00,,---,0.00,VWS V14.01,2013-08-13 07:52:00,
2013-08-13 03:57:00,64.0,59.1,29.81,SE,134,0.0,2.0,84,0.00,,---,0.00,VWS V14.01,2013-08-13 07:57:00,
2013-08-13 04:02:00,63.9,59.3,29.81,SE,146,1.0,2.0,85,0.00,,---,0.00,VWS V14.01,2013-08-13 08:02:00,
2013-08-13 04:07:00,63.8,59.2,29.81,SE,146,1.0,2.0,85,0.00,,---,0.00,VWS V14.01,2013-08-13 08:07:00,
2013-08-13 04:13:00,63.7,59.1,29.81,South,179,3.0,4.0,85,0.00,,---,0.00,VWS V14.01,2013-08-13 08:13:00,
2013-08-13 04:18:00,63.4,58.8,29.80,SE,138,1.0,3.0,85,0.00,,---,0.00,VWS V14.01,2013-08-13 08:18:00,
2013-08-13 04:23:00,63.1,58.8,29.80,SE,128,1.0,2.0,86,0.00,,---,0.00,VWS V14.01,2013-08-13 08:23:00,
2013-08-13 04:28:00,62.9,58.7,29.80,SE,138,2.0,3.0,86,0.00,,---,0.00,VWS V14.01,2013-08-13 08:28:00,
2013-08-13 04:33:00,62.8,58.6,29.80,SSE,152,2.0,3.0,86,0.00,,---,0.00,VWS V14.01,2013-08-13 08:33:00,
2013-08-13 04:38:00,62.8,58.9,29.80,SE,134,1.0,4.0,87,0.00,,---,0.00,VWS V14.01,2013-08-13 08:38:00,
2013-08-13 04:43:00,62.7,58.8,29.79,SSW,198,1.0,3.0,87,0.00,,---,0.00,VWS V14.01,2013-08-13 08:43:00,
2013-08-13 04:48:00,62.7,58.8,29.79,South,187,2.0,4.0,87,0.00,,---,0.00,VWS V14.01,2013-08-13 08:48:00,
2013-08-13 04:53:00,63.0,58.8,29.79,South,181,4.0,6.0,86,0.00,,---,0.00,VWS V14.01,2013-08-13 08:53:00,
2013-08-13 04:58:00,63.2,59.0,29.79,SSW,201,2.0,6.0,86,0.00,,---,0.00,VWS V14.01,2013-08-13 08:58:00,
2013-08-13 05:03:00,63.4,58.8,29.79,SSW,200,3.0,6.0,85,0.00,,---,0.00,VWS V14.01,2013-08-13 09:03:00,
2013-08-13 05:08:00,63.5,58.9,29.79,SSW,200,4.0,7.0,85,0.00,,---,0.00,VWS V14.01,2013-08-13 09:08:00,
2013-08-13 05:13:00,63.5,58.9,29.79,SSE,163,3.0,5.0,85,0.00,,---,0.00,VWS V14.01,2013-08-13 09:13:00,
2013-08-13 05:18:00,63.5,58.9,29.79,South,179,2.0,5.0,85,0.00,,---,0.00,VWS V14.01,2013-08-13 09:18:00,
2013-08-13 05:23:00,63.5,58.9,29.79,SSW,201,5.0,5.0,85,0.00,,---,0.00,VWS V14.01,2013-08-13 09:23:00,
2013-08-13 05:28:00,63.7,58.8,29.79,South,185,2.0,6.0,84,0.00,,---,0.00,VWS V14.01,2013-08-13 09:28:00,
2013-08-13 05:33:00,63.8,58.9,29.79,South,182,4.0,5.0,84,0.00,,---,0.00,VWS V14.01,2013-08-13 09:33:00,
2013-08-13 05:38:00,63.9,59.0,29.79,SSE,159,4.0,5.0,84,0.00,,---,0.00,VWS V14.01,2013-08-13 09:38:00,
2013-08-13 05:43:00,63.9,59.0,29.79,SSW,198,3.0,6.0,84,0.00,,---,0.00,VWS V14.01,2013-08-13 09:43:00,
2013-08-13 05:48:00,63.7,58.8,29.79,South,184,1.0,4.0,84,0.00,,---,0.00,VWS V14.01,2013-08-13 09:48:00,
2013-08-13 05:53:00,63.5,58.9,29.79,South,176,4.0,5.0,85,0.00,,---,0.00,VWS V14.01,2013-08-13 09:53:00,
2013-08-13 05:58:00,63.4,58.8,29.79,South,172,2.0,4.0,85,0.00,,---,0.00,VWS V14.01,2013-08-13 09:58:00,
2013-08-13 06:03:00,63.3,58.7,29.79,SSE,155,4.0,4.0,85,0.00,,---,0.00,VWS V14.01,2013-08-13 10:03:00,
2013-08-13 06:08:00,63.5,58.6,29.79,SE,146,3.0,4.0,84,0.00,,---,0.00,VWS V14.01,2013-08-13 10:08:00,
2013-08-13 06:13:00,63.6,58.7,29.79,SE,135,2.0,4.0,84,0.00,,---,0.00,VWS V14.01,2013-08-13 10:13:00,
2013-08-13 06:19:00,63.7,58.8,29.78,SE,140,2.0,4.0,84,0.00,,---,0.00,VWS V14.01,2013-08-13 10:19:00,
2013-08-13 06:24:00,63.7,58.8,29.78,ESE,115,2.0,4.0,84,0.00,,---,0.00,VWS V14.01,2013-08-13 10:24:00,
2013-08-13 06:29:00,63.7,58.8,29.78,SE,146,2.0,4.0,84,0.00,,---,0.00,VWS V14.01,2013-08-13 10:29:00,
2013-08-13 06:34:00,63.7,58.8,29.78,SSE,150,3.0,3.0,84,0.00,,---,0.00,VWS V14.01,2013-08-13 10:34:00,
2013-08-13 06:39:00,63.9,58.6,29.78,SE,133,2.0,3.0,83,0.00,,---,0.00,VWS V14.01,2013-08-13 10:39:00,
2013-08-13 06:44:00,64.1,58.8,29.78,East,97,0.0,3.0,83,0.00,,---,0.00,VWS V14.01,2013-08-13 10:44:00,
2013-08-13 06:49:00,64.2,58.9,29.78,WNW,300,2.0,2.0,83,0.00,,---,0.00,VWS V14.01,2013-08-13 10:49:00,
2013-08-13 06:54:00,63.5,58.9,29.78,West,269,1.0,4.0,85,0.00,,---,0.00,VWS V14.01,2013-08-13 10:54:00,
2013-08-13 06:59:00,63.0,59.1,29.78,WNW,284,0.0,2.0,87,0.00,,---,0.00,VWS V14.01,2013-08-13 10:59:00,
2013-08-13 07:05:00,62.7,59.4,29.77,WNW,287,1.0,2.0,89,0.00,,---,0.00,VWS V14.01,2013-08-13 11:05:00,
2013-08-13 07:10:00,62.2,59.2,29.77,NW,326,0.0,2.0,90,0.01,,---,0.01,VWS V14.01,2013-08-13 11:10:00,
2013-08-13 07:15:00,62.0,59.0,29.78,NNW,329,2.0,4.0,90,0.01,,---,0.01,VWS V14.01,2013-08-13 11:15:00,
2013-08-13 07:20:00,61.9,59.2,29.78,North,356,1.0,5.0,91,0.01,,---,0.01,VWS V14.01,2013-08-13 11:20:00,
2013-08-13 07:25:00,61.8,59.2,29.78,NW,315,5.0,6.0,91,0.01,,---,0.01,VWS V14.01,2013-08-13 11:25:00,
2013-08-13 07:30:00,61.6,59.0,29.77,North,349,3.0,6.0,91,0.01,,---,0.01,VWS V14.01,2013-08-13 11:30:00,
2013-08-13 07:35:00,61.6,59.3,29.77,NW,314,3.0,3.0,92,0.01,,---,0.01,VWS V14.01,2013-08-13 11:35:00,
2013-08-13 07:40:00,61.5,59.5,29.78,WNW,297,5.0,8.0,93,0.01,,---,0.01,VWS V14.01,2013-08-13 11:40:00,
2013-08-13 07:45:00,61.1,59.1,29.79,North,6,3.0,7.0,93,0.01,,---,0.01,VWS V14.01,2013-08-13 11:45:00,
2013-08-13 07:50:00,60.8,59.1,29.78,NNW,348,6.0,7.0,94,0.01,,---,0.01,VWS V14.01,2013-08-13 11:50:00,
2013-08-13 07:55:00,60.5,58.8,29.78,NNW,328,5.0,8.0,94,0.01,,---,0.01,VWS V14.01,2013-08-13 11:55:00,
2013-08-13 08:00:00,60.3,58.6,29.77,NE,36,2.0,11.0,94,0.02,,---,0.02,VWS V14.01,2013-08-13 12:00:00,
2013-08-13 08:05:00,60.0,58.3,29.78,NNW,336,3.0,7.0,94,0.03,,---,0.03,VWS V14.01,2013-08-13 12:05:00,
2013-08-13 08:10:00,59.9,58.5,29.78,NNW,333,4.0,7.0,95,0.03,,---,0.03,VWS V14.01,2013-08-13 12:10:00,
2013-08-13 08:15:00,59.8,58.4,29.78,WNW,283,2.0,6.0,95,0.04,,---,0.05,VWS V14.01,2013-08-13 12:15:00,
2013-08-13 08:20:00,59.8,58.4,29.78,WNW,300,4.0,10.0,95,0.04,,---,0.05,VWS V14.01,2013-08-13 12:20:00,
2013-08-13 08:25:00,59.8,58.4,29.78,North,356,4.0,7.0,95,0.04,,---,0.05,VWS V14.01,2013-08-13 12:25:00,
2013-08-13 08:30:00,59.7,58.3,29.76,NW,312,3.0,12.0,95,0.05,,---,0.06,VWS V14.01,2013-08-13 12:30:00,
2013-08-13 08:36:00,59.6,58.5,29.79,West,270,7.0,7.0,96,0.09,,---,0.10,VWS V14.01,2013-08-13 12:36:00,
2013-08-13 09:02:00,59.2,58.3,29.79,WNW,291,4.0,6.0,97,0.31,,---,0.33,VWS V14.01,2013-08-13 13:02:00,
2013-08-13 09:07:00,59.1,58.2,29.78,WNW,285,2.0,8.0,97,0.33,,---,0.36,VWS V14.01,2013-08-13 13:07:00,
2013-08-13 09:12:00,59.1,58.2,29.79,NW,312,3.0,6.0,97,0.34,,---,0.38,VWS V14.01,2013-08-13 13:12:00,
2013-08-13 09:18:00,59.1,58.2,29.79,WNW,292,2.0,6.0,97,0.36,,---,0.41,VWS V14.01,2013-08-13 13:18:00,
2013-08-13 09:23:00,59.1,58.2,29.78,WNW,293,3.0,6.0,97,0.38,,---,0.43,VWS V14.01,2013-08-13 13:23:00,
2013-08-13 09:28:00,59.1,58.2,29.78,WNW,291,5.0,5.0,97,0.38,,---,0.44,VWS V14.01,2013-08-13 13:28:00,
2013-08-13 09:33:00,59.1,58.2,29.79,West,264,6.0,6.0,97,0.39,,---,0.46,VWS V14.01,2013-08-13 13:33:00,
2013-08-13 09:38:00,59.2,58.3,29.78,NW,316,3.0,5.0,97,0.37,,---,0.48,VWS V14.01,2013-08-13 13:38:00,
2013-08-13 09:43:00,59.2,58.3,29.78,WNW,290,4.0,4.0,97,0.37,,---,0.50,VWS V14.01,2013-08-13 13:43:00,
2013-08-13 09:48:00,59.3,58.5,29.79,West,266,4.0,4.0,97,0.33,,---,0.51,VWS V14.01,2013-08-13 13:48:00,
2013-08-13 09:53:00,59.3,58.5,29.78,WNW,295,4.0,4.0,97,0.29,,---,0.52,VWS V14.01,2013-08-13 13:53:00,
2013-08-13 09:58:00,59.2,58.3,29.78,NW,305,3.0,5.0,97,0.25,,---,0.53,VWS V14.01,2013-08-13 13:58:00,
2013-08-13 10:03:00,59.3,58.5,29.78,West,259,2.0,3.0,97,0.22,,---,0.55,VWS V14.01,2013-08-13 14:03:00,
2013-08-13 10:08:00,59.5,58.9,29.78,West,277,2.0,2.0,98,0.20,,---,0.56,VWS V14.01,2013-08-13 14:08:00,
2013-08-13 10:13:00,59.6,59.0,29.78,West,269,0.0,2.0,98,0.18,,---,0.56,VWS V14.01,2013-08-13 14:13:00,
2013-08-13 10:18:00,59.7,58.8,29.77,East,99,2.0,2.0,97,0.16,,---,0.57,VWS V14.01,2013-08-13 14:18:00,
2013-08-13 10:23:00,60.0,59.4,29.77,ESE,110,2.0,3.0,98,0.14,,---,0.57,VWS V14.01,2013-08-13 14:23:00,
2013-08-13 10:28:00,60.3,59.7,29.77,ESE,113,0.0,3.0,98,0.14,,---,0.58,VWS V14.01,2013-08-13 14:28:00,
2013-08-13 10:33:00,60.4,59.8,29.77,ESE,110,1.0,4.0,98,0.13,,---,0.58,VWS V14.01,2013-08-13 14:33:00,
2013-08-13 10:39:00,60.5,59.9,29.77,East,94,5.0,5.0,98,0.11,,---,0.59,VWS V14.01,2013-08-13 14:39:00,
2013-08-13 10:44:00,60.4,59.5,29.77,SSE,162,4.0,5.0,97,0.09,,---,0.59,VWS V14.01,2013-08-13 14:44:00,
2013-08-13 10:49:00,60.5,59.9,29.77,ESE,107,3.0,4.0,98,0.08,,---,0.59,VWS V14.01,2013-08-13 14:49:00,
2013-08-13 10:54:00,60.4,59.5,29.77,SSE,155,4.0,6.0,97,0.08,,---,0.60,VWS V14.01,2013-08-13 14:54:00,
2013-08-13 10:59:00,60.5,59.9,29.77,SE,129,2.0,5.0,98,0.08,,---,0.61,VWS V14.01,2013-08-13 14:59:00,
2013-08-13 11:04:00,60.4,59.5,29.76,SSE,156,3.0,7.0,97,0.07,,---,0.62,VWS V14.01,2013-08-13 15:04:00,
2013-08-13 11:09:00,60.5,59.9,29.76,East,101,5.0,8.0,98,0.07,,---,0.63,VWS V14.01,2013-08-13 15:09:00,
2013-08-13 11:14:00,60.6,60.0,29.76,SE,142,3.0,8.0,98,0.07,,---,0.63,VWS V14.01,2013-08-13 15:14:00,
2013-08-13 11:19:00,60.5,59.7,29.76,ESE,122,6.0,8.0,97,0.06,,---,0.63,VWS V14.01,2013-08-13 15:19:00,
2013-08-13 11:24:00,60.7,60.1,29.76,ESE,106,6.0,10.0,98,0.07,,---,0.64,VWS V14.01,2013-08-13 15:24:00,
2013-08-13 11:29:00,60.9,60.3,29.75,SE,131,4.0,8.0,98,0.06,,---,0.64,VWS V14.01,2013-08-13 15:29:00,
2013-08-13 11:34:00,61.0,60.4,29.75,ESE,108,5.0,8.0,98,0.06,,---,0.64,VWS V14.01,2013-08-13 15:34:00,
2013-08-13 11:39:00,60.9,60.0,29.75,ESE,111,5.0,8.0,97,0.06,,---,0.64,VWS V14.01,2013-08-13 15:39:00,
2013-08-13 11:44:00,61.1,60.5,29.75,East,97,6.0,7.0,98,0.05,,---,0.64,VWS V14.01,2013-08-13 15:44:00,
2013-08-13 11:49:00,61.1,60.5,29.75,ESE,106,2.0,7.0,98,0.05,,---,0.64,VWS V14.01,2013-08-13 15:49:00,
2013-08-13 11:54:00,61.2,60.6,29.75,ESE,122,3.0,8.0,98,0.04,,---,0.64,VWS V14.01,2013-08-13 15:54:00,
2013-08-13 11:59:00,61.3,60.4,29.74,ESE,117,3.0,7.0,97,0.03,,---,0.64,VWS V14.01,2013-08-13 15:59:00,
2013-08-13 12:04:00,61.3,60.7,29.74,ESE,121,4.0,7.0,98,0.03,,---,0.64,VWS V14.01,2013-08-13 16:04:00,
2013-08-13 12:09:00,61.2,60.3,29.74,ENE,78,4.0,7.0,97,0.02,,---,0.64,VWS V14.01,2013-08-13 16:09:00,
2013-08-13 12:14:00,61.2,60.6,29.74,East,97,7.0,9.0,98,0.01,,---,0.64,VWS V14.01,2013-08-13 16:14:00,
2013-08-13 12:19:00,61.0,60.2,29.74,ESE,107,3.0,7.0,97,0.01,,---,0.64,VWS V14.01,2013-08-13 16:19:00,
2013-08-13 12:24:00,61.1,60.5,29.75,East,101,2.0,6.0,98,0.00,,---,0.64,VWS V14.01,2013-08-13 16:24:00,
2013-08-13 12:29:00,61.1,60.2,29.74,East,94,3.0,6.0,97,0.00,,---,0.64,VWS V14.01,2013-08-13 16:29:00,
2013-08-13 12:33:00,61.0,60.2,29.74,East,86,4.0,5.0,97,0.00,,---,0.64,VWS V14.01,2013-08-13 16:33:00,
2013-08-13 12:38:00,61.0,60.4,29.74,NE,56,4.0,5.0,98,0.00,,---,0.64,VWS V14.01,2013-08-13 16:38:00,
2013-08-13 12:43:00,61.0,60.2,29.74,ESE,103,4.0,6.0,97,0.00,,---,0.64,VWS V14.01,2013-08-13 16:43:00,
2013-08-13 12:48:00,60.9,60.0,29.74,ESE,112,3.0,7.0,97,0.00,,---,0.64,VWS V14.01,2013-08-13 16:48:00,
2013-08-13 12:53:00,60.9,60.0,29.74,ESE,122,4.0,8.0,97,0.00,,---,0.64,VWS V14.01,2013-08-13 16:53:00,
2013-08-13 12:58:00,60.9,60.3,29.73,SE,126,2.0,6.0,98,0.00,,---,0.64,VWS V14.01,2013-08-13 16:58:00,
2013-08-13 13:03:00,61.2,60.6,29.73,ESE,104,6.0,6.0,98,0.00,,---,0.64,VWS V14.01,2013-08-13 17:03:00,
2013-08-13 13:08:00,61.4,60.8,29.73,SE,145,2.0,5.0,98,0.00,,---,0.64,VWS V14.01,2013-08-13 17:08:00,
2013-08-13 13:14:00,61.4,60.8,29.73,SSE,158,4.0,6.0,98,0.00,,---,0.64,VWS V14.01,2013-08-13 17:14:00,
2013-08-13 13:19:00,61.6,61.0,29.73,SE,131,3.0,6.0,98,0.00,,---,0.64,VWS V14.01,2013-08-13 17:19:00,
2013-08-13 13:24:00,61.8,61.2,29.73,SE,129,3.0,5.0,98,0.00,,---,0.64,VWS V14.01,2013-08-13 17:24:00,
2013-08-13 13:29:00,61.7,60.8,29.73,SSE,163,5.0,6.0,97,0.00,,---,0.64,VWS V14.01,2013-08-13 17:29:00,
2013-08-13 13:34:00,61.8,60.9,29.73,SE,144,3.0,6.0,97,0.00,,---,0.64,VWS V14.01,2013-08-13 17:34:00,
2013-08-13 13:39:00,62.0,61.1,29.73,SSE,159,4.0,6.0,97,0.00,,---,0.64,VWS V14.01,2013-08-13 17:39:00,
2013-08-13 13:44:00,62.1,61.2,29.73,SE,132,3.0,6.0,97,0.00,,---,0.64,VWS V14.01,2013-08-13 17:44:00,
2013-08-13 13:49:00,62.2,61.3,29.73,South,188,2.0,5.0,97,0.00,,---,0.64,VWS V14.01,2013-08-13 17:49:00,
2013-08-13 13:54:00,62.6,61.7,29.73,SSE,166,6.0,7.0,97,0.00,,---,0.64,VWS V14.01,2013-08-13 17:54:00,
2013-08-13 13:59:00,62.9,62.0,29.72,SSE,156,9.0,9.0,97,0.00,,---,0.64,VWS V14.01,2013-08-13 17:59:00,
2013-08-13 14:05:00,63.2,62.0,29.72,SE,132,3.0,7.0,96,0.00,,---,0.64,VWS V14.01,2013-08-13 18:05:00,
2013-08-13 14:10:00,63.9,63.0,29.72,ESE,110,8.0,9.0,97,0.00,,---,0.64,VWS V14.01,2013-08-13 18:10:00,
2013-08-13 14:15:00,64.1,62.9,29.72,SE,134,2.0,10.0,96,0.00,,---,0.64,VWS V14.01,2013-08-13 18:15:00,
2013-08-13 14:20:00,64.4,63.2,29.72,SSE,168,4.0,8.0,96,0.00,,---,0.64,VWS V14.01,2013-08-13 18:20:00,
2013-08-13 14:25:00,65.0,63.5,29.72,SW,214,4.0,7.0,95,0.00,,---,0.64,VWS V14.01,2013-08-13 18:25:00,
2013-08-13 14:30:00,65.3,63.5,29.72,SSE,152,2.0,7.0,94,0.00,,---,0.64,VWS V14.01,2013-08-13 18:30:00,
2013-08-13 14:35:00,65.3,63.2,29.72,SE,126,2.0,6.0,93,0.00,,---,0.64,VWS V14.01,2013-08-13 18:35:00,
2013-08-13 14:40:00,65.6,63.8,29.71,SSE,150,2.0,4.0,94,0.00,,---,0.64,VWS V14.01,2013-08-13 18:40:00,
2013-08-13 14:45:00,66.6,64.8,29.70,South,170,1.0,7.0,94,0.00,,---,0.64,VWS V14.01,2013-08-13 18:45:00,
2013-08-13 14:50:00,67.9,65.5,29.71,WSW,253,5.0,7.0,92,0.00,,---,0.64,VWS V14.01,2013-08-13 18:50:00,
2013-08-13 14:55:00,68.6,65.9,29.70,SSE,166,8.0,8.0,91,0.00,,---,0.64,VWS V14.01,2013-08-13 18:55:00,
2013-08-13 15:00:00,68.2,64.5,29.70,East,94,2.0,9.0,88,0.00,,---,0.64,VWS V14.01,2013-08-13 19:00:00,
2013-08-13 15:05:00,67.9,64.9,29.70,SSE,152,3.0,5.0,90,0.00,,---,0.64,VWS V14.01,2013-08-13 19:05:00,
2013-08-13 15:10:00,67.7,64.3,29.70,SSE,158,4.0,6.0,89,0.00,,---,0.64,VWS V14.01,2013-08-13 19:10:00,
2013-08-13 15:15:00,67.9,64.5,29.70,South,176,4.0,6.0,89,0.00,,---,0.64,VWS V14.01,2013-08-13 19:15:00,
2013-08-13 15:20:00,68.3,64.9,29.69,SSW,195,3.0,6.0,89,0.00,,---,0.64,VWS V14.01,2013-08-13 19:20:00,
2013-08-13 15:25:00,68.4,64.7,29.69,South,186,3.0,7.0,88,0.00,,---,0.64,VWS V14.01,2013-08-13 19:25:00,
2013-08-13 15:30:00,68.7,65.3,29.69,SSE,163,6.0,6.0,89,0.00,,---,0.64,VWS V14.01,2013-08-13 19:30:00,
2013-08-13 15:35:00,69.6,65.9,29.69,SSE,152,4.0,7.0,88,0.00,,---,0.64,VWS V14.01,2013-08-13 19:35:00,
2013-08-13 15:40:00,69.8,65.8,29.68,ESE,105,3.0,7.0,87,0.00,,---,0.64,VWS V14.01,2013-08-13 19:40:00,
2013-08-13 15:45:00,70.1,65.7,29.68,SSW,195,7.0,10.0,86,0.00,,---,0.64,VWS V14.01,2013-08-13 19:45:00,
2013-08-13 15:50:00,70.0,65.3,29.68,SSE,160,6.0,10.0,85,0.00,,---,0.64,VWS V14.01,2013-08-13 19:50:00,
2013-08-13 15:56:00,69.6,65.2,29.67,SE,136,4.0,8.0,86,0.00,,---,0.64,VWS V14.01,2013-08-13 19:56:00,
2013-08-13 16:02:00,69.4,65.4,29.67,South,170,7.0,8.0,87,0.00,,---,0.64,VWS V14.01,2013-08-13 20:02:00,
2013-08-13 16:07:00,70.2,66.2,29.67,SSE,154,7.0,10.0,87,0.00,,---,0.64,VWS V14.01,2013-08-13 20:07:00,
2013-08-13 16:12:00,70.5,65.4,29.67,SSE,158,7.0,11.0,84,0.00,,---,0.64,VWS V14.01,2013-08-13 20:12:00,
2013-08-13 16:17:00,70.4,65.3,29.67,SSE,153,5.0,7.0,84,0.00,,---,0.64,VWS V14.01,2013-08-13 20:17:00,
2013-08-13 16:22:00,70.4,65.3,29.67,South,186,5.0,12.0,84,0.00,,---,0.64,VWS V14.01,2013-08-13 20:22:00,
2013-08-13 16:27:00,70.3,66.2,29.68,SE,129,3.0,8.0,87,0.00,,---,0.64,VWS V14.01,2013-08-13 20:27:00,
2013-08-13 16:32:00,69.8,65.8,29.68,SSE,157,3.0,9.0,87,0.00,,---,0.64,VWS V14.01,2013-08-13 20:32:00,
2013-08-13 16:37:00,69.7,65.7,29.67,SE,143,4.0,8.0,87,0.00,,---,0.64,VWS V14.01,2013-08-13 20:37:00,
2013-08-13 16:42:00,69.3,64.9,29.67,SE,143,7.0,9.0,86,0.00,,---,0.64,VWS V14.01,2013-08-13 20:42:00,
2013-08-13 16:48:00,69.2,65.5,29.67,SE,130,7.0,9.0,88,0.00,,---,0.64,VWS V14.01,2013-08-13 20:48:00,
2013-08-13 16:53:00,69.0,65.3,29.67,SSE,160,5.0,8.0,88,0.00,,---,0.64,VWS V14.01,2013-08-13 20:53:00,
2013-08-13 16:58:00,68.8,65.1,29.67,SE,143,7.0,9.0,88,0.00,,---,0.64,VWS V14.01,2013-08-13 20:58:00,
2013-08-13 17:04:00,69.0,65.6,29.67,SE,134,7.0,7.0,89,0.00,,---,0.64,VWS V14.01,2013-08-13 21:04:00,
2013-08-13 17:09:00,68.7,65.3,29.67,SSE,150,3.0,8.0,89,0.00,,---,0.64,VWS V14.01,2013-08-13 21:09:00,
2013-08-13 17:14:00,68.8,65.8,29.67,SSE,148,4.0,5.0,90,0.00,,---,0.64,VWS V14.01,2013-08-13 21:14:00,
2013-08-13 17:19:00,68.6,65.6,29.67,SE,145,6.0,9.0,90,0.00,,---,0.64,VWS V14.01,2013-08-13 21:19:00,
2013-08-13 17:24:00,68.8,65.8,29.67,ESE,120,6.0,9.0,90,0.00,,---,0.64,VWS V14.01,2013-08-13 21:24:00,
2013-08-13 17:29:00,69.3,65.6,29.66,SSE,167,4.0,8.0,88,0.00,,---,0.64,VWS V14.01,2013-08-13 21:29:00,
2013-08-13 17:34:00,69.2,65.8,29.66,SSE,152,2.0,7.0,89,0.00,,---,0.64,VWS V14.01,2013-08-13 21:34:00,
2013-08-13 17:39:00,69.3,65.9,29.66,East,83,4.0,5.0,89,0.00,,---,0.64,VWS V14.01,2013-08-13 21:39:00,
2013-08-13 17:44:00,69.4,66.3,29.66,ESE,113,3.0,6.0,90,0.00,,---,0.64,VWS V14.01,2013-08-13 21:44:00,
2013-08-13 17:49:00,69.2,65.8,29.66,SE,143,6.0,8.0,89,0.00,,---,0.64,VWS V14.01,2013-08-13 21:49:00,
2013-08-13 17:54:00,68.8,65.8,29.65,South,169,4.0,9.0,90,0.00,,---,0.64,VWS V14.01,2013-08-13 21:54:00,
2013-08-13 17:59:00,68.5,65.8,29.65,SE,145,3.0,8.0,91,0.00,,---,0.64,VWS V14.01,2013-08-13 21:59:00,
2013-08-13 18:05:00,68.4,65.7,29.65,SSE,154,4.0,9.0,91,0.00,,---,0.64,VWS V14.01,2013-08-13 22:05:00,
2013-08-13 18:10:00,68.2,65.5,29.65,SSE,150,6.0,7.0,91,0.00,,---,0.64,VWS V14.01,2013-08-13 22:10:00,
2013-08-13 18:15:00,67.7,65.0,29.64,SE,135,8.0,8.0,91,0.00,,---,0.64,VWS V14.01,2013-08-13 22:15:00,
2013-08-13 18:26:00,66.2,63.2,29.66,WNW,288,10.0,14.0,90,0.03,,---,0.67,VWS V14.01,2013-08-13 22:26:00,
2013-08-13 18:32:00,64.9,62.5,29.65,WNW,285,7.0,16.0,92,0.04,,---,0.68,VWS V14.01,2013-08-13 22:32:00,
2013-08-13 18:37:00,64.4,62.6,29.66,WNW,283,11.0,21.0,94,0.04,,---,0.68,VWS V14.01,2013-08-13 22:37:00,
2013-08-13 18:42:00,64.3,62.8,29.66,West,276,7.0,14.0,95,0.04,,---,0.68,VWS V14.01,2013-08-13 22:42:00,
2013-08-13 18:47:00,64.2,63.0,29.66,NW,316,7.0,15.0,96,0.04,,---,0.68,VWS V14.01,2013-08-13 22:47:00,
2013-08-13 18:52:00,64.1,62.9,29.66,WNW,293,7.0,17.0,96,0.04,,---,0.68,VWS V14.01,2013-08-13 22:52:00,
2013-08-13 18:57:00,63.9,62.7,29.66,WNW,302,10.0,18.0,96,0.04,,---,0.68,VWS V14.01,2013-08-13 22:57:00,
2013-08-13 19:02:00,63.7,62.5,29.67,WNW,284,9.0,21.0,96,0.04,,---,0.68,VWS V14.01,2013-08-13 23:02:00,
2013-08-13 19:07:00,63.5,62.3,29.66,NW,314,11.0,14.0,96,0.04,,---,0.68,VWS V14.01,2013-08-13 23:07:00,
2013-08-13 19:12:00,63.5,62.3,29.67,NW,308,5.0,15.0,96,0.04,,---,0.68,VWS V14.01,2013-08-13 23:12:00,
2013-08-13 19:17:00,63.3,62.4,29.67,WNW,287,5.0,13.0,97,0.04,,---,0.68,VWS V14.01,2013-08-13 23:17:00,
2013-08-13 19:22:00,63.3,62.4,29.67,West,269,8.0,15.0,97,0.03,,---,0.68,VWS V14.01,2013-08-13 23:22:00,
2013-08-13 19:27:00,63.2,62.3,29.67,NW,312,6.0,13.0,97,0.01,,---,0.68,VWS V14.01,2013-08-13 23:27:00,
2013-08-13 19:32:00,63.1,62.2,29.68,WNW,298,4.0,17.0,97,0.00,,---,0.68,VWS V14.01,2013-08-13 23:32:00,
2013-08-13 19:37:00,63.0,62.1,29.68,WNW,298,5.0,15.0,97,0.00,,---,0.68,VWS V14.01,2013-08-13 23:37:00,
2013-08-13 19:42:00,63.0,62.1,29.68,NW,311,9.0,16.0,97,0.00,,---,0.68,VWS V14.01,2013-08-13 23:42:00,
2013-08-13 19:47:00,62.8,61.9,29.68,WNW,301,8.0,14.0,97,0.00,,---,0.68,VWS V14.01,2013-08-13 23:47:00,
2013-08-13 19:52:00,62.8,61.9,29.68,NNW,342,8.0,14.0,97,0.00,,---,0.68,VWS V14.01,2013-08-13 23:52:00,
2013-08-13 19:57:00,62.7,61.8,29.68,WNW,286,5.0,11.0,97,0.00,,---,0.68,VWS V14.01,2013-08-13 23:57:00,
2013-08-13 20:02:00,62.6,61.7,29.68,WNW,292,5.0,14.0,97,0.00,,---,0.68,VWS V14.01,2013-08-14 00:02:00,
2013-08-13 20:07:00,62.6,61.7,29.69,NW,324,4.0,13.0,97,0.00,,---,0.68,VWS V14.01,2013-08-14 00:07:00,
2013-08-13 20:12:00,62.6,61.7,29.69,NW,314,6.0,14.0,97,0.00,,---,0.68,VWS V14.01,2013-08-14 00:12:00,
2013-08-13 20:17:00,62.6,61.7,29.69,WNW,288,5.0,12.0,97,0.00,,---,0.68,VWS V14.01,2013-08-14 00:17:00,
2013-08-13 20:22:00,62.7,61.8,29.70,NW,304,16.0,16.0,97,0.00,,---,0.68,VWS V14.01,2013-08-14 00:22:00,
2013-08-13 20:27:00,62.6,61.7,29.70,NW,305,6.0,16.0,97,0.00,,---,0.68,VWS V14.01,2013-08-14 00:27:00,
2013-08-13 20:33:00,62.5,61.6,29.70,WNW,297,5.0,15.0,97,0.00,,---,0.68,VWS V14.01,2013-08-14 00:33:00,
2013-08-13 20:38:00,62.4,61.2,29.69,WNW,294,10.0,17.0,96,0.00,,---,0.68,VWS V14.01,2013-08-14 00:38:00,
2013-08-13 20:43:00,62.3,61.2,29.70,NW,322,13.0,18.0,96,0.00,,---,0.68,VWS V14.01,2013-08-14 00:43:00,
2013-08-13 20:48:00,62.2,60.8,29.70,NW,306,9.0,19.0,95,0.00,,---,0.68,VWS V14.01,2013-08-14 00:48:00,
2013-08-13 20:53:00,62.0,60.6,29.70,WNW,293,7.0,18.0,95,0.00,,---,0.68,VWS V14.01,2013-08-14 00:53:00,
2013-08-13 20:58:00,61.8,60.1,29.70,WNW,286,8.0,19.0,94,0.00,,---,0.68,VWS V14.01,2013-08-14 00:58:00,
2013-08-13 21:03:00,61.6,59.9,29.71,NW,305,7.0,19.0,94,0.00,,---,0.68,VWS V14.01,2013-08-14 01:03:00,
2013-08-13 21:08:00,61.4,60.0,29.71,WNW,284,13.0,16.0,95,0.00,,---,0.68,VWS V14.01,2013-08-14 01:08:00,
2013-08-13 21:13:00,61.2,59.8,29.71,WNW,283,10.0,20.0,95,0.00,,---,0.68,VWS V14.01,2013-08-14 01:13:00,
2013-08-13 21:18:00,61.0,59.3,29.72,WNW,282,8.0,19.0,94,0.00,,---,0.68,VWS V14.01,2013-08-14 01:18:00,
2013-08-13 21:23:00,60.9,59.2,29.71,WNW,290,5.0,18.0,94,0.00,,---,0.68,VWS V14.01,2013-08-14 01:23:00,
2013-08-13 21:28:00,60.7,58.7,29.71,WNW,300,10.0,20.0,93,0.00,,---,0.68,VWS V14.01,2013-08-14 01:28:00,
2013-08-13 21:33:00,60.5,58.5,29.72,NNW,328,15.0,19.0,93,0.00,,---,0.68,VWS V14.01,2013-08-14 01:33:00,
2013-08-13 21:38:00,60.3,58.3,29.73,WNW,290,8.0,22.0,93,0.00,,---,0.68,VWS V14.01,2013-08-14 01:38:00,
2013-08-13 21:43:00,60.1,58.4,29.72,NW,311,13.0,17.0,94,0.00,,---,0.68,VWS V14.01,2013-08-14 01:43:00,
2013-08-13 21:48:00,59.9,58.2,29.73,WNW,295,14.0,18.0,94,0.00,,---,0.68,VWS V14.01,2013-08-14 01:48:00,
2013-08-13 21:53:00,59.8,58.1,29.73,WNW,295,12.0,22.0,94,0.00,,---,0.68,VWS V14.01,2013-08-14 01:53:00,
2013-08-13 21:58:00,59.7,57.7,29.73,NW,309,12.0,20.0,93,0.00,,---,0.68,VWS V14.01,2013-08-14 01:58:00,
2013-08-13 22:03:00,59.5,57.5,29.73,NW,314,10.0,22.0,93,0.00,,---,0.68,VWS V14.01,2013-08-14 02:03:00,
2013-08-13 22:08:00,59.4,57.1,29.74,WNW,302,14.0,21.0,92,0.00,,---,0.68,VWS V14.01,2013-08-14 02:08:00,
2013-08-13 22:13:00,59.2,56.9,29.74,WNW,300,10.0,19.0,92,0.00,,---,0.68,VWS V14.01,2013-08-14 02:13:00,
2013-08-13 22:17:00,59.0,56.7,29.74,NW,321,10.0,18.0,92,0.00,,---,0.68,VWS V14.01,2013-08-14 02:17:00,
2013-08-13 22:23:00,58.8,56.5,29.75,NW,305,9.0,20.0,92,0.00,,---,0.68,VWS V14.01,2013-08-14 02:23:00,
2013-08-13 22:28:00,58.7,56.1,29.75,WNW,292,9.0,18.0,91,0.00,,---,0.68,VWS V14.01,2013-08-14 02:28:00,
2013-08-13 22:33:00,58.5,55.6,29.75,WNW,295,6.0,18.0,90,0.00,,---,0.68,VWS V14.01,2013-08-14 02:33:00,
2013-08-13 22:38:00,58.3,55.7,29.75,NW,310,10.0,17.0,91,0.00,,---,0.68,VWS V14.01,2013-08-14 02:38:00,
2013-08-13 22:43:00,58.2,55.6,29.75,WNW,295,7.0,16.0,91,0.00,,---,0.68,VWS V14.01,2013-08-14 02:43:00,
2013-08-13 22:48:00,58.1,55.2,29.75,WNW,284,13.0,17.0,90,0.00,,---,0.68,VWS V14.01,2013-08-14 02:48:00,
2013-08-13 22:53:00,57.9,55.0,29.74,NW,305,19.0,19.0,90,0.00,,---,0.68,VWS V14.01,2013-08-14 02:53:00,
2013-08-13 22:58:00,57.7,54.5,29.75,NW,304,13.0,18.0,89,0.00,,---,0.68,VWS V14.01,2013-08-14 02:58:00,
2013-08-13 23:03:00,57.4,54.2,29.75,West,276,10.0,15.0,89,0.00,,---,0.68,VWS V14.01,2013-08-14 03:03:00,
2013-08-13 23:08:00,57.3,54.1,29.75,WNW,284,14.0,18.0,89,0.00,,---,0.68,VWS V14.01,2013-08-14 03:08:00,
2013-08-13 23:13:00,57.2,53.7,29.75,WNW,300,7.0,19.0,88,0.00,,---,0.68,VWS V14.01,2013-08-14 03:13:00,
2013-08-13 23:18:00,57.0,53.8,29.75,WNW,291,6.0,17.0,89,0.00,,---,0.68,VWS V14.01,2013-08-14 03:18:00,
2013-08-13 23:23:00,56.8,53.6,29.75,WNW,295,8.0,20.0,89,0.00,,---,0.68,VWS V14.01,2013-08-14 03:23:00,
2013-08-13 23:28:00,56.6,53.4,29.75,NW,310,9.0,15.0,89,0.00,,---,0.68,VWS V14.01,2013-08-14 03:28:00,
2013-08-13 23:33:00,56.5,53.3,29.75,West,276,9.0,18.0,89,0.00,,---,0.68,VWS V14.01,2013-08-14 03:33:00,
2013-08-13 23:38:00,56.5,53.3,29.76,NW,316,8.0,20.0,89,0.00,,---,0.68,VWS V14.01,2013-08-14 03:38:00,
2013-08-13 23:43:00,56.5,53.3,29.75,WNW,295,10.0,17.0,89,0.00,,---,0.68,VWS V14.01,2013-08-14 03:43:00,
2013-08-13 23:48:00,56.3,53.4,29.75,NW,318,7.0,15.0,90,0.00,,---,0.68,VWS V14.01,2013-08-14 03:48:00,
2013-08-13 23:53:00,56.2,53.3,29.75,NW,311,12.0,15.0,90,0.00,,---,0.68,VWS V14.01,2013-08-14 03:53:00,
2013-08-13 23:58:00,56.1,53.2,29.75,WNW,301,6.0,18.0,90,0.00,,---,0.68,VWS V14.01,2013-08-14 03:58:00,